Flag for Trinidad and Tobago Weather past 2 weeks in San Fernando, Trinidad and Tobago

Now
79 °F

Passing clouds.


Feels Like: 82 °F
Forecast: 79 / 88 °F
Wind: No wind

Location: Piarco International Airport - Trinidad

Current Time: Sep 1, 2014 at 8:04:22 AM

Latest Report: Sep 1, 2014 at 7:00 AM


Visibility: N/A

Pressure: 29.95 "Hg

Humidity: 89%

Dew point: 75 °F

Location of San FernandoLocation

Historic Weather in San Fernando — Graph

°F

San Fernando temperature yesterday

Maximum temperature yesterday: 91 °F (at 11:00 AM)
Minimum temperature yesterday: 75 °F (at 1:00 AM)
Average temperature yesterday: 83 °F

Past Weeks' High & Low Weather Summary

 TemperatureHumidityPressure
High95 °F (Aug 20, 1:00 PM)94% (Aug 18, 2:00 AM)30.01 "Hg (Aug 18, 2:00 AM)
Low75 °F (Aug 19, 4:00 AM)44% (Aug 20, 1:00 PM)29.80 "Hg (Aug 18, 4:00 PM)
Average82 °F79%29.90 "Hg
* Reported Aug 17 7:00 AM — Sep 1 7:00 AM, San Fernando, Weather by CustomWeather, © 2014

Note: Actual official high and low records may vary slightly from our data, if they occured in-between our weather recording intervals... More about our weather records

Advertising

San Fernando weather history for previous 24 hours

 ConditionsComfort  
Time TempWeatherWind HumidityBarometerVisibility
7:00 AM
Sep 1
79 °FPassing clouds.No wind89%29.95 "HgN/A
6:00 AM77 °FPassing clouds.No wind94%29.92 "HgN/A
5:00 AM77 °FPassing clouds.No wind94%29.92 "HgN/A
4:00 AM77 °FPassing clouds.No wind94%29.92 "HgN/A
3:00 AM79 °FPassing clouds.No wind89%29.89 "HgN/A
2:00 AM79 °FPassing clouds.No wind89%29.92 "HgN/A
1:00 AM79 °FPassing clouds.No wind89%29.92 "HgN/A
12:00 AM79 °FPassing clouds.No wind84%29.95 "HgN/A
11:00 PM
Aug 31
79 °FPassing clouds.No wind89%29.95 "HgN/A
10:00 PM79 °FPassing clouds.No wind89%29.95 "HgN/A
9:00 PM79 °FPassing clouds.No wind89%29.95 "HgN/A
8:00 PM81 °FPassing clouds.No wind84%29.95 "HgN/A
7:00 PM82 °FPassing clouds.6 mph79%29.92 "HgN/A
6:00 PM84 °FPassing clouds.9 mph74%29.92 "HgN/A
5:00 PM86 °FPassing clouds.7 mph66%29.89 "HgN/A
4:00 PM88 °FPassing clouds.10 mph62%29.89 "HgN/A
3:00 PM91 °FScattered clouds.15 mph56%29.89 "HgN/A
2:00 PM90 °FScattered clouds.15 mph59%29.92 "HgN/A
1:00 PM91 °FScattered clouds.14 mph56%29.92 "HgN/A
12:00 PM91 °FScattered clouds.14 mph56%29.95 "HgN/A
11:00 AM91 °FScattered clouds.12 mph56%29.98 "HgN/A
10:00 AM88 °FPartly sunny.13 mph66%29.98 "HgN/A
9:00 AM88 °FPartly sunny.10 mph70%29.98 "HgN/A
8:00 AM86 °FPassing clouds.9 mph75%29.95 "HgN/A
Weather by CustomWeather, © 2014

See weather overviewHow to use our weather pages